Debrecen, Hungary

6:12 PM CET on February 25, 2017 (GMT +0100)
Debrecen

Weather History for LHDC - May, 2013

Change the Weather History Date:

Saturday, May 25, 2013

  Actual Average Record
Temperature  
Mean Temperature 58 °F -  
Max Temperature 66 °F 75 °F - ()
Min Temperature 51 °F 55 °F - ()
Degree Days  
Heating Degree Days 6    
Growing Degree Days 8 (Base 50)    
Moisture  
Dew Point 50 °F    
Average Humidity 78    
Maximum Humidity 94    
Minimum Humidity 48    
Precipitation  
Precipitation 0.03 in 0.10 in - ()
Sea Level Pressure  
Sea Level Pressure 29.76 in    
Wind  
Wind Speed 7 mph ()    
Max Wind Speed 17 mph    
Max Gust Speed 30 mph    
Visibility 5.4 miles    
Events Rain    
T = Trace of Precipitation, MM = Missing Value Source: Averaged Metar Reports

Daily Weather History Graph

Daily Weather History Graph

Search for Another Location

Airport or City:

Trip Planner

Search our weather history database for the weather conditions in past years. The results will help you decide how hot, cold, wet, or windy it might be!

Date:

Astronomy

May. 25, 2013 Rise Set
Actual Time 4:45 AM CEST 8:15 PM CEST
Civil Twilight 4:07 AM CEST 8:54 PM CEST
Nautical Twilight 3:17 AM CEST 9:45 PM CEST
Astronomical Twilight 2:10 AM CEST 10:53 PM CEST
Moon 8:42 PM CEST 4:57 AM CEST
Length of Visible Light 16h 46m
Length of Day
15h 29m
Full, 100% of the Moon is Illuminated
May 25
Full
May 31
Last Quarter
Jun 8
New
Jun 16
First Quarter
Jun 23
Full

Hourly Weather History & Observations

Time (CEST) Temp. Dew Point Humidity Pressure Visibility Wind Dir Wind Speed Gust Speed Precip Events Conditions
2:00 AM 53 °F 52 °F 93% 29.74 in - SSW 2.2 mph - -  
4:45 AM 53.6 °F 51.8 °F 94% 29.74 in 3.7 mi South 4.6 mph - N/A   Overcast
5:11 AM 53.6 °F 51.8 °F 94% 29.74 in - South 6.9 mph - N/A   Unknown
5:15 AM 53.6 °F 51.8 °F 94% 29.74 in 3.7 mi South 5.8 mph - N/A Rain Light Rain
5:45 AM 53.6 °F 51.8 °F 94% 29.74 in 3.7 mi SSW 6.9 mph - N/A Rain Light Rain
6:15 AM 53.6 °F 51.8 °F 94% 29.74 in 2.5 mi SSW 6.9 mph - N/A Rain Light Rain
6:45 AM 53.6 °F 51.8 °F 94% 29.74 in - SSW 6.9 mph - N/A Rain Light Rain
7:00 AM - - N/A% - 4.3 mi SSW 9.2 mph - N/A   Mostly Cloudy
7:15 AM 53.6 °F 51.8 °F 94% 29.74 in - SW 4.6 mph - N/A Rain Light Rain
7:45 AM 53.6 °F 51.8 °F 94% 29.74 in 2.8 mi SW 5.8 mph - N/A   Overcast
8:00 AM 54 °F 52 °F 90% 29.75 in 3 mi SW 4.5 mph - - Rain Light Rain
8:15 AM 53.6 °F 51.8 °F 94% 29.77 in - SW 6.9 mph - N/A Rain Light Rain
8:45 AM 53.6 °F 50.0 °F 88% 29.77 in - WSW 6.9 mph - N/A Rain Light Rain
9:10 AM 53.6 °F 51.8 °F 94% 29.77 in 3.7 mi South 4.6 mph - N/A Rain Light Rain
9:15 AM 53.6 °F 51.8 °F 94% 29.77 in 3.7 mi South 3.5 mph - N/A Rain Light Rain
9:45 AM 55.4 °F 51.8 °F 88% 29.77 in 3.7 mi SSW 6.9 mph - N/A   Overcast
10:00 AM - - N/A% - 4.3 mi SSW 8.1 mph - N/A   Mostly Cloudy
10:15 AM 57.2 °F 51.8 °F 82% 29.77 in 5.0 mi SSW 8.1 mph - N/A   Mostly Cloudy
10:45 AM 57.2 °F 51.8 °F 82% 29.77 in 6.2 mi SW 9.2 mph - N/A   Mostly Cloudy
11:15 AM 59.0 °F 50.0 °F 72% 29.77 in 6.2 mi SSW 9.2 mph - N/A   Mostly Cloudy
11:45 AM 59.0 °F 50.0 °F 72% 29.77 in 6.2 mi SW 9.2 mph - N/A   Mostly Cloudy
12:00 PM 59.0 °F 50.0 °F 72% 29.80 in - SSW 11.5 mph 29.9 mph N/A   Unknown
12:15 PM 55.4 °F 48.2 °F 77% 29.80 in 6.2 mi SW 17.3 mph - N/A   Mostly Cloudy
12:45 PM 57.2 °F 48.2 °F 72% 29.80 in 6.2 mi SSW 6.9 mph - N/A   Mostly Cloudy
1:00 PM - - N/A% - 6.2 mi SSW 8.1 mph - N/A   Mostly Cloudy
1:15 PM 60.8 °F 50.0 °F 68% 29.77 in 6.2 mi SW 9.2 mph - N/A   Mostly Cloudy
1:45 PM 62.6 °F 48.2 °F 59% 29.77 in 6.2 mi SSW 15.0 mph - N/A   Mostly Cloudy
2:00 PM 62 °F 48 °F 50% 29.76 in 16 mi SSW 15.7 mph - -   Partly Cloudy
2:15 PM 64.4 °F 48.2 °F 56% 29.77 in 6.2 mi SW 12.7 mph - N/A   Mostly Cloudy
2:45 PM 64.4 °F 48.2 °F 56% 29.77 in 6.2 mi SSW 13.8 mph - N/A   Mostly Cloudy
3:15 PM 64.4 °F 48.2 °F 56% 29.77 in 6.2 mi SSW 11.5 mph - N/A   Scattered Clouds
3:45 PM 66.2 °F 46.4 °F 49% 29.77 in 6.2 mi SSW 13.8 mph - N/A   Scattered Clouds
4:15 PM 64.4 °F 46.4 °F 52% 29.77 in 6.2 mi SW 12.7 mph - N/A   Scattered Clouds
5:00 PM - - N/A% - - North - - N/A   Unknown
8:00 PM 62 °F 47 °F 48% 29.76 in - WNW 6.7 mph - -